#�ϑ�����,���ϕ���,���ϕ���,�ő啗��,�ő啗����������,�ő�u�ԕ���,�ő�u�ԕ�����������
#(�N����),(m/s)   ,(16����),(m/s)   ,(16����)        ,(m/s)       ,(16����)            
2016/3/20 0:01,8.3,15,8.3,15,14.8,15
2016/3/20 0:02,7.9,15,8.3,15,10.8,16
2016/3/20 0:03,7.9,15,8,15,13.2,16
2016/3/20 0:04,7.7,15,7.9,15,8.3,2
2016/3/20 0:05,7.9,15,8,15,14.5,15
2016/3/20 0:06,7.6,15,7.8,15,12.5,14
2016/3/20 0:07,7.3,15,7.6,15,10.5,16
2016/3/20 0:08,6.9,15,7.3,15,10.7,16
2016/3/20 0:09,6.8,15,6.9,15,11.3,15
2016/3/20 0:10,6.3,15,6.7,15,13.4,14
2016/3/20 0:11,6.1,15,6.3,15,11.4,16
2016/3/20 0:12,6.4,15,6.4,15,10.6,15
2016/3/20 0:13,6.5,15,6.6,15,16.2,16
2016/3/20 0:14,6.7,15,6.8,15,12.5,14
2016/3/20 0:15,6.1,15,6.7,15,5,1
2016/3/20 0:16,5.9,15,6.1,15,7.9,15
2016/3/20 0:17,6,15,6,15,11.1,16
2016/3/20 0:18,5.9,15,6.1,15,9.3,15
2016/3/20 0:19,5.7,15,5.9,15,9.9,14
2016/3/20 0:20,6,15,6.1,15,14.3,16
2016/3/20 0:21,6,15,6.1,15,13.8,15
2016/3/20 0:22,6,15,6.1,15,10.8,15
2016/3/20 0:23,5.7,15,5.9,15,11.4,16
2016/3/20 0:24,5.7,16,5.8,15,12.5,15
2016/3/20 0:25,5.7,15,5.7,15,4.9,16
2016/3/20 0:26,5.6,15,5.6,15,8.5,14
2016/3/20 0:27,5.8,15,5.9,15,14.2,16
2016/3/20 0:28,6.1,15,6.1,15,13.8,16
2016/3/20 0:29,6.6,15,6.6,15,19.7,15
2016/3/20 0:30,6.2,15,6.5,15,8.2,16
2016/3/20 0:31,6.5,15,6.5,15,17.5,15
2016/3/20 0:32,6.5,15,6.6,15,15,15
2016/3/20 0:33,6.3,15,6.6,15,6.7,13
2016/3/20 0:34,6.5,15,6.5,15,16.2,14
2016/3/20 0:35,7.1,15,7.1,15,16.1,15
2016/3/20 0:36,7.5,15,7.5,15,12.7,16
2016/3/20 0:37,7.4,15,7.4,15,14.9,15
2016/3/20 0:38,7.2,15,7.4,15,13.5,16
2016/3/20 0:39,6.5,15,7.2,15,6.1,16
2016/3/20 0:40,6.4,15,6.5,15,6.5,15
2016/3/20 0:41,6.1,15,6.4,15,11.6,15
2016/3/20 0:42,5.8,15,6,15,8.9,16
2016/3/20 0:43,6.2,15,6.2,15,13.3,15
2016/3/20 0:44,6.2,15,6.3,15,18.8,15
2016/3/20 0:45,6,15,6.1,15,21.8,13
2016/3/20 0:46,6.1,16,6.1,15,19.8,15
2016/3/20 0:47,6.2,16,6.3,15,16.5,15
2016/3/20 0:48,6,15,6.2,15,11.3,16
2016/3/20 0:49,6.5,15,6.5,15,16.3,15
2016/3/20 0:50,6.9,15,6.9,15,13,15
2016/3/20 0:51,7.2,15,7.2,15,18.8,15
2016/3/20 0:52,7.4,15,7.4,15,12.7,15
2016/3/20 0:53,7.5,15,7.7,15,18.3,16
2016/3/20 0:54,7.5,15,7.6,15,13.6,16
2016/3/20 0:55,7.5,15,7.7,15,15.1,16
2016/3/20 0:56,7.5,15,7.5,15,17.6,15
2016/3/20 0:57,7.5,15,7.6,15,15,15
2016/3/20 0:58,7.7,15,7.7,15,16,15
2016/3/20 0:59,7.6,15,7.8,15,14.3,16
2016/3/20 1:00,7.6,15,7.7,15,10.3,15
2016/3/20 1:01,7.5,15,7.7,15,16.7,14
2016/3/20 1:02,7.5,15,7.5,15,13.1,16
2016/3/20 1:03,7.6,15,7.6,15,15.9,15
2016/3/20 1:04,7.6,15,7.6,15,12.7,16
2016/3/20 1:05,7.4,15,7.6,15,11.1,16
2016/3/20 1:06,7.1,15,7.4,15,10,15
2016/3/20 1:07,7.2,16,7.3,15,14.4,16
2016/3/20 1:08,7,16,7.2,15,9.3,1
2016/3/20 1:09,6.8,16,7.1,15,12.1,15
2016/3/20 1:10,6.7,16,6.7,15,12.4,15
2016/3/20 1:11,6.4,16,6.7,15,11.3,15
2016/3/20 1:12,6.5,16,6.6,15,15.2,16
2016/3/20 1:13,6,16,6.5,15,6.7,15
2016/3/20 1:14,5.7,16,6,15,10.6,15
2016/3/20 1:15,5.7,15,5.8,15,11.7,15
2016/3/20 1:16,5.6,16,5.7,16,6.3,16
2016/3/20 1:17,5.2,16,5.5,16,10.7,15
2016/3/20 1:18,5.3,16,5.3,16,9.3,16
2016/3/20 1:19,5.3,16,5.3,16,9.9,13
2016/3/20 1:20,5.3,16,5.4,16,13,15
2016/3/20 1:21,5.5,15,5.6,16,13.8,15
2016/3/20 1:22,5.5,15,5.5,16,13.2,14
2016/3/20 1:23,5.5,15,5.5,16,8.6,14
2016/3/20 1:24,5.7,15,5.7,16,12.3,15
2016/3/20 1:25,5.4,15,5.7,15,8.6,16
2016/3/20 1:26,5.4,15,5.4,15,8.1,14
2016/3/20 1:27,5.2,15,5.4,15,7.8,15
2016/3/20 1:28,4.9,15,5.2,15,4.7,16
2016/3/20 1:29,4.7,15,4.9,15,7.7,16
2016/3/20 1:30,4.3,15,4.6,15,4.7,1
2016/3/20 1:31,3.9,15,4.2,15,11.4,1
2016/3/20 1:32,3.5,15,3.9,15,5,15
2016/3/20 1:33,3.3,16,3.5,15,6,16
2016/3/20 1:34,3,16,3.2,15,4.8,6
2016/3/20 1:35,3,16,3.1,15,6.3,13
2016/3/20 1:36,3.1,16,3.1,15,12.3,14
2016/3/20 1:37,3,16,3.1,15,9.4,15
2016/3/20 1:38,2.9,16,3,15,5.5,16
2016/3/20 1:39,3.1,16,3.1,15,11.9,15
2016/3/20 1:40,3.2,15,3.2,15,8.7,14
2016/3/20 1:41,3.4,15,3.4,16,10.7,15
2016/3/20 1:42,3.9,15,4,15,14.2,15
2016/3/20 1:43,4.2,15,4.2,15,9.3,15
2016/3/20 1:44,4.7,15,4.7,15,14.3,16
2016/3/20 1:45,5.1,15,5.1,15,11.7,15
2016/3/20 1:46,5.1,15,5.2,15,10.6,14
2016/3/20 1:47,5.3,15,5.3,15,5.4,1
2016/3/20 1:48,5.4,16,5.4,15,8.7,2
2016/3/20 1:49,5.2,16,5.5,16,5.5,2
2016/3/20 1:50,5,16,5.1,16,7.5,16
2016/3/20 1:51,5.2,16,5.3,16,9,14
2016/3/20 1:52,4.7,16,5.2,16,5.7,15
2016/3/20 1:53,4.4,16,4.6,16,4.7,15
2016/3/20 1:54,3.8,16,4.4,16,7.5,14
2016/3/20 1:55,3.3,1,3.7,16,5.1,15
2016/3/20 1:56,3,1,3.3,16,4.1,1
2016/3/20 1:57,2.8,1,3,16,2.4,16
2016/3/20 1:58,2.7,1,2.8,16,4.5,9
2016/3/20 1:59,2.5,1,2.7,16,2.7,2
2016/3/20 2:00,2.4,1,2.5,16,5.7,16
2016/3/20 2:01,2,1,2.3,16,3.1,16
2016/3/20 2:02,2.1,1,2.1,16,10,15
2016/3/20 2:03,2.2,16,2.3,16,9.2,15
2016/3/20 2:04,2.2,1,2.2,16,4.3,2
2016/3/20 2:05,2.4,1,2.4,1,7,2
2016/3/20 2:06,2.5,1,2.5,1,7.2,1
2016/3/20 2:07,2.6,1,2.6,1,5.6,16
2016/3/20 2:08,2.5,1,2.6,1,3.2,13
2016/3/20 2:09,2.9,16,2.9,16,13.9,14
2016/3/20 2:10,3,16,3,16,5.7,15
2016/3/20 2:11,3.2,16,3.2,16,7.9,16
2016/3/20 2:12,3.4,16,3.4,16,11.3,16
2016/3/20 2:13,3.3,16,3.3,16,7.6,15
2016/3/20 2:14,3.3,16,3.4,16,5.2,12
2016/3/20 2:15,3.1,16,3.3,16,4.1,2
2016/3/20 2:16,3.1,16,3.1,16,5.6,16
2016/3/20 2:17,3.1,16,3.1,16,5.6,15
2016/3/20 2:18,3.2,16,3.2,16,3.1,2
2016/3/20 2:19,2.9,16,3.2,16,4.2,1
2016/3/20 2:20,2.7,16,2.9,16,3.2,1
2016/3/20 2:21,2.6,16,2.7,16,4.8,7
2016/3/20 2:22,2.1,1,2.5,16,3.6,4
2016/3/20 2:23,1.9,1,2.1,16,3.6,16
2016/3/20 2:24,2,1,2,16,3.5,16
2016/3/20 2:25,2,1,2,16,3.2,12
2016/3/20 2:26,1.9,16,2,16,2.5,12
2016/3/20 2:27,1.7,16,1.9,16,2.2,9
2016/3/20 2:28,1.6,16,1.6,16,4.2,14
2016/3/20 2:29,1.7,16,1.7,16,5.7,15
2016/3/20 2:30,1.8,16,1.8,16,3,16
2016/3/20 2:31,2,16,2,16,7.8,15
2016/3/20 2:32,2.3,15,2.3,15,7,1
2016/3/20 2:33,2.6,15,2.6,15,9.3,14
2016/3/20 2:34,2.6,15,2.7,15,6.3,15
2016/3/20 2:35,2.8,15,2.8,15,6.1,15
2016/3/20 2:36,3,15,3,15,6.7,15
2016/3/20 2:37,3.6,15,3.6,15,11.1,14
2016/3/20 2:38,3.8,16,3.8,16,8.5,16
2016/3/20 2:39,4.2,16,4.2,16,11.9,14
2016/3/20 2:40,4.6,15,4.6,15,10.8,15
2016/3/20 2:41,4.6,15,4.7,15,10.2,16
2016/3/20 2:42,5,15,5,15,13.6,15
2016/3/20 2:43,5.1,15,5.2,15,13.9,15
2016/3/20 2:44,5.4,15,5.4,15,12.5,15
2016/3/20 2:45,5.6,15,5.6,15,12.2,16
2016/3/20 2:46,5.7,15,5.7,15,9.1,16
2016/3/20 2:47,5.6,15,5.7,15,10.7,15
2016/3/20 2:48,5.9,15,5.9,15,12.3,15
2016/3/20 2:49,5.5,16,5.8,15,7.4,16
2016/3/20 2:50,5.5,15,5.5,15,8.9,15
2016/3/20 2:51,5.8,15,5.8,15,12.4,15
2016/3/20 2:52,5.6,15,5.9,15,9.4,16
2016/3/20 2:53,5.3,15,5.5,15,6.7,16
2016/3/20 2:54,5.4,15,5.4,15,12.8,15
2016/3/20 2:55,5.5,15,5.6,15,13.2,15
2016/3/20 2:56,5.7,15,5.8,15,16.5,16
2016/3/20 2:57,6,15,6,15,15.9,16
2016/3/20 2:58,5.9,15,6.1,15,11,15
2016/3/20 2:59,6.4,15,6.4,15,13,15
2016/3/20 3:00,6.6,15,6.6,15,11.3,16
2016/3/20 3:01,6.4,15,6.6,15,9.8,15
2016/3/20 3:02,6.4,15,6.4,15,7.8,14
2016/3/20 3:03,6.2,15,6.3,15,3.6,13
2016/3/20 3:04,6.1,15,6.2,15,10.6,15
2016/3/20 3:05,6,15,6.1,15,10,16
2016/3/20 3:06,5.8,15,5.9,15,17,16
2016/3/20 3:07,5.5,15,5.9,15,13.1,15
2016/3/20 3:08,5.4,15,5.5,15,10.7,14
2016/3/20 3:09,5.1,15,5.4,15,14,15
2016/3/20 3:10,5.2,15,5.2,15,16.6,15
2016/3/20 3:11,5.1,15,5.3,15,11.1,15
2016/3/20 3:12,5.4,15,5.4,15,15.4,16
2016/3/20 3:13,5.8,15,5.8,15,8.9,15
2016/3/20 3:14,5.7,15,5.9,15,12.2,12
2016/3/20 3:15,5.8,15,5.8,15,12.4,16
2016/3/20 3:16,6.1,15,6.2,15,14,15
2016/3/20 3:17,5.9,15,6,15,6.8,14
2016/3/20 3:18,5.7,15,5.9,15,5.7,16
2016/3/20 3:19,5.9,15,5.9,15,13.6,14
2016/3/20 3:20,5.9,15,6,15,13.9,16
2016/3/20 3:21,6.2,15,6.2,15,14.4,1
2016/3/20 3:22,6.3,15,6.3,15,19.4,15
2016/3/20 3:23,6.6,15,6.6,15,16.2,15
2016/3/20 3:24,7.1,15,7.1,15,15.4,15
2016/3/20 3:25,7,16,7.1,15,10.8,16
2016/3/20 3:26,7,16,7.2,16,14.8,16
2016/3/20 3:27,7.1,16,7.1,16,9.1,16
2016/3/20 3:28,7.5,16,7.5,16,12.1,15
2016/3/20 3:29,7.8,16,7.8,16,20.7,16
2016/3/20 3:30,7.5,16,7.8,16,11.9,2
2016/3/20 3:31,7.4,16,7.5,16,9.2,15
2016/3/20 3:32,7,16,7.4,16,10.9,2
2016/3/20 3:33,6.6,16,6.9,16,13,1
2016/3/20 3:34,6.3,16,6.6,16,10.7,16
2016/3/20 3:35,6.5,16,6.5,16,12.8,15
2016/3/20 3:36,6.4,16,6.5,16,11.1,16
2016/3/20 3:37,6.4,16,6.5,16,8.6,16
2016/3/20 3:38,6.5,16,6.5,16,16.2,14
2016/3/20 3:39,5.9,16,6.5,16,13.2,15
2016/3/20 3:40,5.9,16,5.9,16,11.1,14
2016/3/20 3:41,5.7,16,6,16,10.9,14
2016/3/20 3:42,5.4,16,5.7,16,8.6,2
2016/3/20 3:43,5.4,16,5.4,16,8.7,14
2016/3/20 3:44,5.3,16,5.4,16,10,1
2016/3/20 3:45,5.2,16,5.4,16,12.4,16
2016/3/20 3:46,5.4,16,5.4,16,11.8,16
2016/3/20 3:47,5.3,16,5.4,16,7.7,1
2016/3/20 3:48,5.2,16,5.4,16,8.5,15
2016/3/20 3:49,5.1,16,5.2,16,6.2,15
2016/3/20 3:50,5,16,5.1,16,7.8,15
2016/3/20 3:51,5,16,5,16,7.2,16
2016/3/20 3:52,5,16,5,16,4.9,15
2016/3/20 3:53,5.1,16,5.1,16,8.6,16
2016/3/20 3:54,4.9,16,5.2,16,7.1,15
2016/3/20 3:55,4.3,16,4.9,16,3.1,16
2016/3/20 3:56,3.9,16,4.3,16,6.2,14
2016/3/20 3:57,3.5,16,3.8,16,2.9,14
2016/3/20 3:58,3.4,16,3.5,16,9.3,16
2016/3/20 3:59,3.6,16,3.6,16,6.8,16
2016/3/20 4:00,3.6,16,3.7,16,6.9,15
2016/3/20 4:01,3.6,16,3.6,16,6.2,14
2016/3/20 4:02,3.8,16,3.8,16,7.7,16
2016/3/20 4:03,4,15,4,16,13.9,1
2016/3/20 4:04,4.4,15,4.4,16,11.5,16
2016/3/20 4:05,4.8,15,4.8,15,10.5,16
2016/3/20 4:06,5,15,5,15,9.2,15
2016/3/20 4:07,5.6,15,5.6,15,11.6,16
2016/3/20 4:08,5.7,15,5.7,15,10.2,16
2016/3/20 4:09,6,15,6,15,11.9,16
2016/3/20 4:10,6.3,15,6.3,15,10.3,16
2016/3/20 4:11,6.4,16,6.4,15,9,15
2016/3/20 4:12,6.5,16,6.5,16,8.7,16
2016/3/20 4:13,6.3,15,6.5,16,10.3,14
2016/3/20 4:14,6.3,15,6.4,16,10.1,15
2016/3/20 4:15,6,15,6.3,16,9.2,1
2016/3/20 4:16,6.2,15,6.2,16,10.2,16
2016/3/20 4:17,5.8,15,6.1,16,6.7,15
2016/3/20 4:18,5.7,15,5.8,16,9.2,16
2016/3/20 4:19,5.3,15,5.7,16,8.2,1
2016/3/20 4:20,5,15,5.2,16,8.6,15
2016/3/20 4:21,5.3,15,5.3,16,12.7,15
2016/3/20 4:22,5.4,15,5.4,16,10.5,16
2016/3/20 4:23,5.6,15,5.6,15,12.3,16
2016/3/20 4:24,5.5,16,5.5,15,12.3,15
2016/3/20 4:25,5.7,15,5.8,15,12.1,16
2016/3/20 4:26,5.5,16,5.7,15,6.5,15
2016/3/20 4:27,5.7,15,5.7,15,11.7,15
2016/3/20 4:28,6,15,6,15,12.7,15
2016/3/20 4:29,6.3,15,6.3,15,12.5,15
2016/3/20 4:30,6.7,15,6.7,15,12.3,15
2016/3/20 4:31,6.5,15,6.8,15,8.7,15
2016/3/20 4:32,6.6,15,6.6,15,11.6,15
2016/3/20 4:33,6.2,15,6.5,15,10.8,15
2016/3/20 4:34,5.9,15,6.2,15,6.2,13
2016/3/20 4:35,5.7,15,6,15,8.3,15
2016/3/20 4:36,5.8,15,5.8,15,11.4,15
2016/3/20 4:37,6,15,6,15,12.8,16
2016/3/20 4:38,6.1,15,6.1,15,12.8,16
2016/3/20 4:39,6.2,15,6.3,15,14.7,16
2016/3/20 4:40,6,15,6.2,15,8.4,16
2016/3/20 4:41,5.9,15,6,15,8.1,14
2016/3/20 4:42,5.5,15,5.9,15,11.7,15
2016/3/20 4:43,5.7,15,5.7,15,9.9,14
2016/3/20 4:44,6,15,6,15,9.1,1
2016/3/20 4:45,6.1,15,6.1,15,9.5,15
2016/3/20 4:46,6,15,6.2,15,7.8,14
2016/3/20 4:47,5.4,15,6,15,4.2,11
2016/3/20 4:48,4.9,15,5.4,15,7.6,16
2016/3/20 4:49,4.5,15,4.8,15,7.7,14
2016/3/20 4:50,4.6,15,4.6,15,10,15
2016/3/20 4:51,4.7,15,4.7,15,8.6,16
2016/3/20 4:52,4.9,15,5,15,12.2,2
2016/3/20 4:53,4.7,15,4.9,15,9,15
2016/3/20 4:54,5,15,5,15,14,15
2016/3/20 4:55,5,15,5,15,7.5,15
2016/3/20 4:56,4.9,15,5,15,6.9,14
2016/3/20 4:57,5.2,15,5.2,15,9.9,16
2016/3/20 4:58,5.4,15,5.4,15,11.4,15
2016/3/20 4:59,5.3,15,5.4,15,8.5,15
2016/3/20 5:00,5.3,15,5.4,15,9.5,15
2016/3/20 5:01,5.1,15,5.4,15,8.1,14
2016/3/20 5:02,4.9,15,5.1,15,4.5,1
2016/3/20 5:03,4.9,15,5,15,7.4,16
2016/3/20 5:04,4.3,15,4.8,15,8.7,15
2016/3/20 5:05,4.3,15,4.3,15,8.5,15
2016/3/20 5:06,4.6,15,4.6,15,10.5,14
2016/3/20 5:07,4.5,15,4.7,15,10.1,15
2016/3/20 5:08,4.6,15,4.6,15,11.7,15
2016/3/20 5:09,4.8,15,4.8,15,10.8,15
2016/3/20 5:10,4.7,15,4.8,15,9.1,15
2016/3/20 5:11,4.7,15,4.7,15,8.1,15
2016/3/20 5:12,5.3,15,5.3,15,18.8,16
2016/3/20 5:13,5.3,15,5.3,15,8.9,16
2016/3/20 5:14,5.8,15,5.8,15,15.8,15
2016/3/20 5:15,6,15,6,15,10.2,15
2016/3/20 5:16,6.1,15,6.1,15,9.5,16
2016/3/20 5:17,6.2,15,6.2,15,9.4,16
2016/3/20 5:18,6.2,15,6.3,15,12.7,16
2016/3/20 5:19,6.2,16,6.3,15,13,1
2016/3/20 5:20,6.2,16,6.3,15,9.9,14
2016/3/20 5:21,6.1,16,6.2,15,5,1
2016/3/20 5:22,5.5,16,6,15,7.4,16
2016/3/20 5:23,5.3,16,5.5,15,8.1,1
2016/3/20 5:24,5,16,5.3,15,10.6,15
2016/3/20 5:25,4.6,16,5,15,6.1,1
2016/3/20 5:26,4.7,16,4.7,15,10.7,14
2016/3/20 5:27,4.8,16,4.8,15,11.1,16
2016/3/20 5:28,4.6,16,4.9,15,9,16
2016/3/20 5:29,4.1,16,4.6,16,3.2,16
2016/3/20 5:30,4.1,16,4.2,16,7.6,16
2016/3/20 5:31,4.3,16,4.3,16,6.7,16
2016/3/20 5:32,4.1,16,4.2,16,4.7,16
2016/3/20 5:33,4.3,16,4.4,16,10,16
2016/3/20 5:34,4.2,16,4.3,16,7.7,16
2016/3/20 5:35,4.5,16,4.5,16,11.8,1
2016/3/20 5:36,4.4,16,4.5,16,10.7,15
2016/3/20 5:37,4.1,16,4.4,16,7.7,14
2016/3/20 5:38,4,16,4.1,16,6.2,16
2016/3/20 5:39,4.3,16,4.3,16,5.8,1
2016/3/20 5:40,4.5,16,4.5,16,10.9,15
2016/3/20 5:41,4.9,16,4.9,16,12.5,16
2016/3/20 5:42,5.3,16,5.4,16,11.1,16
2016/3/20 5:43,5.1,16,5.3,16,5.1,15
2016/3/20 5:44,5,16,5.1,16,7.2,2
2016/3/20 5:45,4.6,16,5,16,3.8,11
2016/3/20 5:46,4.2,16,4.5,16,4.5,9
2016/3/20 5:47,4.2,16,4.2,16,6.5,16
2016/3/20 5:48,4.6,16,4.6,16,14.7,16
2016/3/20 5:49,4.5,16,4.6,16,8.6,16
2016/3/20 5:50,4.6,16,4.6,16,19.8,1
2016/3/20 5:51,5.1,16,5.2,16,25.1,15
2016/3/20 5:52,5.2,15,5.2,16,11.5,12
2016/3/20 5:53,5.3,15,5.3,15,7.4,14
2016/3/20 5:54,5.3,14,5.3,15,5.2,12
2016/3/20 5:55,5.8,15,5.8,15,11.3,16
2016/3/20 5:56,5.9,15,6,15,7.2,1
2016/3/20 5:57,6.3,15,6.3,15,13,15
2016/3/20 5:58,6.1,15,6.3,15,10.3,15
2016/3/20 5:59,6.1,15,6.1,15,6.2,16
2016/3/20 6:00,5.7,15,6.1,15,7.9,14
2016/3/20 6:01,4.7,15,5.5,15,5.8,16
2016/3/20 6:02,4.1,16,4.7,15,2.4,7
2016/3/20 6:03,4,16,4.1,15,7.6,15
2016/3/20 6:04,4.1,16,4.2,15,10.1,16
2016/3/20 6:05,3.7,16,4.1,15,5.2,3
2016/3/20 6:06,4.2,16,4.2,15,21.5,16
2016/3/20 6:07,4.6,16,4.7,15,21.5,16
2016/3/20 6:08,4.5,16,4.6,15,9.8,16
2016/3/20 6:09,4.3,16,4.4,15,4.4,1
2016/3/20 6:10,4.2,16,4.3,15,6,15
2016/3/20 6:11,4.3,16,4.3,15,8.1,16
2016/3/20 6:12,4.9,15,4.9,15,10.3,15
2016/3/20 6:13,4.7,16,4.9,15,6.8,1
2016/3/20 6:14,4.5,15,4.7,15,3,7
2016/3/20 6:15,4.4,15,4.5,15,2.7,15
2016/3/20 6:16,3.8,15,4.4,15,4.2,13
2016/3/20 6:17,3.2,15,3.7,15,8.1,15
2016/3/20 6:18,3.3,15,3.3,15,8.9,14
2016/3/20 6:19,3.8,14,3.8,15,11.4,13
2016/3/20 6:20,3.8,14,3.9,15,7.2,11
2016/3/20 6:21,3.9,14,3.9,15,6.4,16
2016/3/20 6:22,3.7,14,3.9,15,7.6,16
2016/3/20 6:23,3.7,14,3.7,16,6.4,15
2016/3/20 6:24,3.7,15,3.7,16,2.9,1
2016/3/20 6:25,3.8,15,3.8,15,5.6,16
2016/3/20 6:26,4,16,4,15,7.7,1
2016/3/20 6:27,4.2,16,4.3,16,10.2,1
2016/3/20 6:28,4.2,16,4.2,16,7.5,1
2016/3/20 6:29,3.9,16,4.4,16,9.7,15
2016/3/20 6:30,3.7,16,3.9,16,2.4,7
2016/3/20 6:31,3.4,1,3.7,16,2,9
2016/3/20 6:32,3.2,1,3.4,16,2.6,5
2016/3/20 6:33,3.1,2,3.3,16,5.5,3
2016/3/20 6:34,3.4,1,3.4,16,6.7,16
2016/3/20 6:35,3.4,1,3.4,16,6.9,16
2016/3/20 6:36,3.3,1,3.4,16,5.2,11
2016/3/20 6:37,2.8,16,3.2,16,4.4,10
2016/3/20 6:38,2.5,15,2.8,16,4.1,11
2016/3/20 6:39,2.3,16,2.5,16,2.6,4
2016/3/20 6:40,2.4,1,2.4,16,4.5,1
2016/3/20 6:41,2.6,16,2.6,1,7.5,14
2016/3/20 6:42,2.9,15,2.9,1,9.4,15
2016/3/20 6:43,3.2,15,3.2,1,7,15
2016/3/20 6:44,3.5,14,3.5,14,9.1,12
2016/3/20 6:45,3.6,14,3.6,14,9,12
2016/3/20 6:46,3.5,14,3.6,14,5.7,10
2016/3/20 6:47,3.4,14,3.5,14,2.9,16
2016/3/20 6:48,3.5,15,3.5,14,6.2,1
2016/3/20 6:49,3.9,15,3.9,15,7.7,15
2016/3/20 6:50,4.2,14,4.2,14,8.9,15
2016/3/20 6:51,4.3,14,4.3,14,8.6,16
2016/3/20 6:52,4.1,14,4.3,14,9.2,16
2016/3/20 6:53,4,14,4.1,14,7.4,16
2016/3/20 6:54,4.1,15,4.1,14,12.2,15
2016/3/20 6:55,3.9,15,4,14,6.3,16
2016/3/20 6:56,4.2,16,4.2,14,8.1,1
2016/3/20 6:57,4.6,16,4.6,16,8.3,16
2016/3/20 6:58,4.8,16,4.8,16,10,1
2016/3/20 6:59,4.8,16,4.8,16,10.9,16
2016/3/20 7:00,4.7,16,4.9,16,9.8,14
2016/3/20 7:01,4.6,16,4.7,16,5.7,15
2016/3/20 7:02,4.8,16,4.8,16,6.8,14
2016/3/20 7:03,4.8,16,4.8,16,6.1,1
2016/3/20 7:04,4.3,16,4.8,16,7.7,15
2016/3/20 7:05,4.5,16,4.5,16,10.6,16
2016/3/20 7:06,4.4,15,4.6,16,6.2,1
2016/3/20 7:07,4.2,15,4.4,16,8.1,16
2016/3/20 7:08,3.9,15,4.2,16,5,14
2016/3/20 7:09,4.1,16,4.1,16,12.4,16
2016/3/20 7:10,4.3,16,4.3,16,12.3,16
2016/3/20 7:11,4.4,15,4.6,16,7.2,13
2016/3/20 7:12,4.4,15,4.5,16,7.2,13
2016/3/20 7:13,4.3,15,4.5,16,7,1
2016/3/20 7:14,4.3,15,4.3,16,5.4,15
2016/3/20 7:15,4.6,15,4.6,16,15.3,15
2016/3/20 7:16,4.8,15,4.8,15,12.3,16
2016/3/20 7:17,4.6,15,4.7,15,7.1,13
2016/3/20 7:18,4.9,15,4.9,15,8.4,14
2016/3/20 7:19,4.4,15,4.9,15,5.7,14
2016/3/20 7:20,4.1,15,4.3,15,5.1,12
2016/3/20 7:21,3.8,15,4.1,15,2.5,1
2016/3/20 7:22,3.7,15,3.8,15,5.2,13
2016/3/20 7:23,3.7,15,3.8,15,5.1,14
2016/3/20 7:24,4,15,4,15,14.4,1
2016/3/20 7:25,4,15,4,15,13.4,15
2016/3/20 7:26,4.1,14,4.1,15,15.2,15
2016/3/20 7:27,4.5,14,4.5,15,11.9,15
2016/3/20 7:28,4.4,14,4.5,15,7.6,11
2016/3/20 7:29,4.5,14,4.5,14,7.5,1
2016/3/20 7:30,4.7,14,4.7,14,9.2,12
2016/3/20 7:31,4.9,14,4.9,14,5.4,14
2016/3/20 7:32,5,14,5,14,7,14
2016/3/20 7:33,5,14,5,14,11.8,15
2016/3/20 7:34,4.9,14,5.1,14,8.3,15
2016/3/20 7:35,5.1,14,5.1,14,13.1,16
2016/3/20 7:36,4.8,14,5.1,14,8.3,15
2016/3/20 7:37,4.7,14,4.8,14,11.1,16
2016/3/20 7:38,4.8,15,4.8,14,9,15
2016/3/20 7:39,5,15,5,14,9,14
2016/3/20 7:40,5.2,15,5.2,15,10.8,16
2016/3/20 7:41,5.2,15,5.2,15,10.8,15
2016/3/20 7:42,5.6,15,5.6,15,15.7,14
2016/3/20 7:43,5.7,15,5.8,15,15,15
2016/3/20 7:44,5.9,15,5.9,15,10.7,15
2016/3/20 7:45,5.6,15,5.9,15,9,16
2016/3/20 7:46,5.4,16,5.6,15,6.2,15
2016/3/20 7:47,5.4,16,5.5,15,9.8,1
2016/3/20 7:48,5.4,16,5.4,15,7.6,15
2016/3/20 7:49,5.1,16,5.4,15,6.3,16
2016/3/20 7:50,4.8,16,5.1,15,7.2,1
2016/3/20 7:51,4.8,16,5,15,6,15
2016/3/20 7:52,4.4,16,4.7,15,7.2,2
2016/3/20 7:53,4.8,16,4.8,15,14.7,16
2016/3/20 7:54,4.7,16,4.8,15,11.7,16
2016/3/20 7:55,4.8,16,4.8,15,13.1,16
2016/3/20 7:56,5.1,16,5.1,16,13.1,16
2016/3/20 7:57,4.9,16,5.1,16,7.8,15
2016/3/20 7:58,5.1,16,5.1,16,13,14
2016/3/20 7:59,5.2,16,5.2,16,8.3,1
2016/3/20 8:00,5.7,16,5.7,16,13.1,15
2016/3/20 8:01,6.2,16,6.2,16,13.3,15
2016/3/20 8:02,6.2,16,6.3,16,6,14
2016/3/20 8:03,5.5,16,6.1,16,3.3,15
2016/3/20 8:04,5.4,16,5.5,16,8.6,15
2016/3/20 8:05,5.6,16,5.7,16,13.8,16
2016/3/20 8:06,5.4,16,5.6,16,11.4,15
2016/3/20 8:07,5.3,16,5.4,16,7.2,15
2016/3/20 8:08,5.2,16,5.3,16,14.8,15
2016/3/20 8:09,5.4,16,5.4,16,15.4,15
2016/3/20 8:10,5.4,16,5.4,16,16.1,14
2016/3/20 8:11,5.1,16,5.4,16,12.3,15
2016/3/20 8:12,5.6,16,5.6,16,13.2,15
2016/3/20 8:13,6.2,16,6.2,16,13.5,16
2016/3/20 8:14,6.3,16,6.4,16,12.1,16
2016/3/20 8:15,5.8,16,6.2,16,10.7,16
2016/3/20 8:16,5.9,15,5.9,16,7.7,15
2016/3/20 8:17,6.3,15,6.3,16,10.3,15
2016/3/20 8:18,6,15,6.3,16,5.6,14
2016/3/20 8:19,5.7,15,5.9,16,9.7,16
2016/3/20 8:20,5.7,15,5.8,16,13.1,15
2016/3/20 8:21,5.8,15,5.8,16,12.5,15
2016/3/20 8:22,5.6,15,5.8,16,9,16
2016/3/20 8:23,5.5,15,5.6,16,12.1,15
2016/3/20 8:24,5.7,15,5.7,15,12.4,15
2016/3/20 8:25,5.7,15,5.7,15,8.3,16
2016/3/20 8:26,5.5,15,5.7,15,8.4,15
2016/3/20 8:27,5.3,15,5.4,15,9.5,16
2016/3/20 8:28,5.9,15,5.9,15,11.1,15
2016/3/20 8:29,6.1,15,6.1,15,10.2,14
2016/3/20 8:30,5.5,15,6.1,15,7.4,15
2016/3/20 8:31,5.2,15,5.5,15,7.5,16
2016/3/20 8:32,5.1,15,5.2,15,8.9,16
2016/3/20 8:33,5,16,5.2,15,10.7,16
2016/3/20 8:34,4.9,16,5.2,15,10,16
2016/3/20 8:35,4.8,16,4.9,15,9.3,15
2016/3/20 8:36,5.2,15,5.2,15,11.1,15
2016/3/20 8:37,5.5,16,5.5,15,14.9,16
2016/3/20 8:38,5.6,16,5.7,15,13.2,1
2016/3/20 8:39,5.4,16,5.6,15,8.7,1
2016/3/20 8:40,5.4,16,5.4,16,4.4,3
2016/3/20 8:41,5.2,16,5.3,16,5.4,14
2016/3/20 8:42,5.1,16,5.3,16,5.5,12
2016/3/20 8:43,4.8,16,5.1,16,7.8,15
2016/3/20 8:44,4.6,16,4.8,16,4.4,16
2016/3/20 8:45,4.9,16,4.9,16,14.7,15
2016/3/20 8:46,4.8,16,4.9,16,9.9,15
2016/3/20 8:47,4.1,16,4.7,16,6,14
2016/3/20 8:48,3.5,16,4.1,16,5.7,15
2016/3/20 8:49,3.7,16,3.7,16,8.4,15
2016/3/20 8:50,3.7,15,3.7,16,5.2,16
2016/3/20 8:51,3.8,15,3.8,16,6.4,16
2016/3/20 8:52,4.1,16,4.1,16,10.1,15
2016/3/20 8:53,4,16,4,16,9.1,2
2016/3/20 8:54,4.1,16,4.1,16,7.5,16
2016/3/20 8:55,4,16,4.1,16,11.3,16
2016/3/20 8:56,4.3,16,4.3,16,13.1,15
2016/3/20 8:57,4.7,16,4.7,16,9.1,16
2016/3/20 8:58,4.8,16,4.8,16,6.8,1
2016/3/20 8:59,5,16,5,16,10.1,15
2016/3/20 9:00,5,16,5,16,5.8,15
2016/3/20 9:01,4.9,16,5,16,5.7,14
2016/3/20 9:02,4.8,16,4.8,16,10.1,16
2016/3/20 9:03,5,16,5,16,10.5,16
2016/3/20 9:04,5.3,16,5.3,16,13.6,16
2016/3/20 9:05,5.1,16,5.3,16,7.9,1
2016/3/20 9:06,4.8,16,5.1,16,8.5,15
2016/3/20 9:07,5.1,16,5.1,16,19.3,15
2016/3/20 9:08,5.4,16,5.4,16,13.2,15
2016/3/20 9:09,5.6,16,5.6,16,13.5,16
2016/3/20 9:10,6.1,16,6.1,16,12.8,15
2016/3/20 9:11,6.5,16,6.5,16,10.7,16
2016/3/20 9:12,6.4,16,6.6,16,6.8,14
2016/3/20 9:13,6.9,16,6.9,16,18.6,15
2016/3/20 9:14,6.8,16,6.9,16,11.6,1
2016/3/20 9:15,6.6,16,6.8,16,6.4,16
2016/3/20 9:16,6.5,16,6.6,16,8.7,15
2016/3/20 9:17,6.2,16,6.5,16,10.2,16
2016/3/20 9:18,6.1,16,6.3,16,10.2,15
2016/3/20 9:19,5.7,16,5.9,16,10.2,15
2016/3/20 9:20,5.4,16,5.7,16,10.6,15
2016/3/20 9:21,5.1,16,5.4,16,9.8,15
2016/3/20 9:22,5.4,16,5.4,16,13.3,16
2016/3/20 9:23,5.3,16,5.5,16,13.1,16
2016/3/20 9:24,5.3,16,5.3,16,10.8,16
2016/3/20 9:25,5.7,16,5.7,16,11.3,1
2016/3/20 9:26,5.9,16,5.9,16,10.2,16
2016/3/20 9:27,6.1,16,6.1,16,14.4,15
2016/3/20 9:28,6.1,16,6.2,16,13.1,16
2016/3/20 9:29,6.3,16,6.4,16,9.2,16
2016/3/20 9:30,6,16,6.2,16,4.9,1
2016/3/20 9:31,6.3,16,6.3,16,13.9,1
2016/3/20 9:32,6.5,16,6.5,16,11.6,16
2016/3/20 9:33,6.4,16,6.5,16,13.3,16
2016/3/20 9:34,6.4,16,6.4,16,9.5,16
2016/3/20 9:35,6.2,16,6.4,16,12.3,16
2016/3/20 9:36,6.2,16,6.3,16,7.4,1
2016/3/20 9:37,5.9,16,6.3,16,7.8,1
2016/3/20 9:38,5.9,16,5.9,16,12.1,16
2016/3/20 9:39,6.2,16,6.2,16,15,16
2016/3/20 9:40,6.8,16,6.8,16,16.9,15
2016/3/20 9:41,6.7,16,6.9,16,8.5,15
2016/3/20 9:42,6.9,15,6.9,16,15.4,14
2016/3/20 9:43,6.7,15,7,15,11.6,16
2016/3/20 9:44,6.5,15,6.7,15,8.4,15
2016/3/20 9:45,6.5,15,6.6,15,9,15
2016/3/20 9:46,6.6,15,6.7,15,12.7,15
2016/3/20 9:47,6.7,15,6.7,15,11.3,16
2016/3/20 9:48,6.8,15,6.9,15,11.3,16
2016/3/20 9:49,6.8,15,6.9,15,13.6,15
2016/3/20 9:50,6.3,15,6.7,15,7.5,16
2016/3/20 9:51,6.2,16,6.2,15,11.4,15
2016/3/20 9:52,5.8,16,6.2,15,8.9,15
2016/3/20 9:53,5.8,16,5.8,15,8.1,1
2016/3/20 9:54,5.6,16,5.8,15,6.5,16
2016/3/20 9:55,5.4,16,5.6,15,7.5,16
2016/3/20 9:56,5.2,16,5.3,15,7.9,16
2016/3/20 9:57,5.5,16,5.5,15,11.6,16
2016/3/20 9:58,5.6,16,5.6,15,12.2,15
2016/3/20 9:59,5.2,16,5.6,15,11.3,15
2016/3/20 10:00,5.6,15,5.6,15,13.8,15
2016/3/20 10:01,5.9,15,5.9,16,15.9,16
2016/3/20 10:02,6,15,6,15,15.7,16
2016/3/20 10:03,5.8,15,6,15,8.1,16
2016/3/20 10:04,6.1,15,6.1,15,9.1,15
2016/3/20 10:05,6.3,15,6.3,15,11.6,16
2016/3/20 10:06,6.5,15,6.5,15,9.2,16
2016/3/20 10:07,6.3,16,6.5,15,10.7,16
2016/3/20 10:08,6.3,16,6.3,15,12.8,16
2016/3/20 10:09,6.7,16,6.7,16,16.9,15
2016/3/20 10:10,6.6,16,6.8,16,13.6,15
2016/3/20 10:11,6.5,16,6.6,16,11.1,15
2016/3/20 10:12,6.5,16,6.5,16,10.5,15
2016/3/20 10:13,6.7,16,6.7,16,13.9,15
2016/3/20 10:14,7.1,16,7.1,16,14.5,15
2016/3/20 10:15,7,16,7.2,16,8.9,1
2016/3/20 10:16,6.8,16,7,16,7.9,16
2016/3/20 10:17,6.6,16,6.8,16,9.5,15
2016/3/20 10:18,6.5,16,6.6,16,10.5,15
2016/3/20 10:19,6.3,16,6.6,16,10.3,16
2016/3/20 10:20,6.2,16,6.2,16,14.4,14
2016/3/20 10:21,6.5,16,6.5,16,15.3,16
2016/3/20 10:22,6.3,16,6.4,16,10.1,16
2016/3/20 10:23,6.4,16,6.5,16,9.7,15
2016/3/20 10:24,6,16,6.3,16,9.9,15
2016/3/20 10:25,5.9,16,5.9,16,7.2,16
2016/3/20 10:26,6,15,6,16,11.4,16
2016/3/20 10:27,6,15,6,16,8.1,1
2016/3/20 10:28,6,15,6,16,9.5,14
2016/3/20 10:29,6.3,15,6.3,16,14,16
2016/3/20 10:30,6.3,15,6.4,16,12.2,15
2016/3/20 10:31,5.7,15,6.2,16,8.2,16
2016/3/20 10:32,5.8,15,5.8,16,9.8,15
2016/3/20 10:33,5.8,15,5.8,15,9.7,16
2016/3/20 10:34,5.7,15,5.8,15,6.1,15
2016/3/20 10:35,5.5,15,5.7,15,3.1,13
2016/3/20 10:36,5.2,15,5.5,15,6.3,14
2016/3/20 10:37,5.1,15,5.2,15,6.3,16
2016/3/20 10:38,5,15,5.1,15,8.9,15
2016/3/20 10:39,4.7,15,4.9,15,9,16
2016/3/20 10:40,4.5,15,4.7,15,8.2,15
2016/3/20 10:41,4.3,15,4.4,15,4.3,15
2016/3/20 10:42,4,15,4.2,15,6.3,15
2016/3/20 10:43,3.8,15,4,15,8.7,15
2016/3/20 10:44,4,15,4,15,9.8,14
2016/3/20 10:45,4.3,15,4.3,15,9.8,15
2016/3/20 10:46,4.3,15,4.4,15,5.1,16
2016/3/20 10:47,4.3,15,4.3,15,6.3,16